TIANLIAN 1-01

Last updated on Nov. 18, 2019, 4:21 a.m. UTC

1 32779U 08019A   19321.06969778 -.00000131  00000-0  00000+0 0  9999
2 32779   3.6667  73.2963 0033465 245.5815 202.1098  1.00272611 42366
UTC
Height (km)
Latitude
Longitude
Inclination
Orbital Period
UTC large
Height (km)
Speed (km/s)
/
Latitude / Longitude
Inclination (degrees)
Orbital Period (minutes)
Azimuth
Elevation
Range (km)
Doppler Factor
iOS Compass Heading
iOS Angle

Next 30 passes for location: Hong Kong

Rise time Rise Azimuth (degrees) Set time Set Azimuth (degrees) Duration Max altitude (degrees)

No matching passes for this satellites